User: anonymous   Login
Location: Hawks Ness
(60.2333°N, 1.1667°W)
Time: 21:11:06
(UTC+00:00)
Language:

Cosmos 2360 Rocket - Orbit

View from above orbital plane
View from above orbital plane
View from above satellite
View from above satellite

Ground track
Ground track

The orbit data is extracted from the following two-line orbital elements,

1 25407U 98045B   19339.90347086 -.00000227 +00000-0 -91015-4 0  9999
2 25407 071.0099 306.4631 0010236 271.3559 088.6392 14.15792084103543
Epoch (UTC): 05 December 2019 21:40:59
Eccentricity: 0.0010236
inclination: 71.0099°
perigee height: 832 km
apogee height: 847 km
right ascension of ascending node: 306.4631°
argument of perigee: 271.3559°
revolutions per day: 14.15792084
mean anomaly at epoch: 88.6392°
orbit number at epoch: 10354

The dashed part of the orbit path shows where the satellite is in the earth's shadow,  

DLR